Probability
81 84 87 84 84 81 84 81 81 77 77 71 68 65 61 65 61 58 58 58 45 35 35 35 39 39 42 39 32 32 26 23 13 10 16 32 32 19 10 16 16 10 3
84 84 87 74 81 77 77 84 81 81 77 71 71 65 61 55 58 55 55 42 39 32 32 35 35 26 35 35 35 23 29 32 19 16 10 29 32 35 35 32 6 0 0
77 77 68 74 74 81 71 74 77 77 74 74 71 65 58 61 52 48 48 52 45 32 35 35 32 23 29 29 35 19 26 13 23 13 16 23 29 10 23 13 0 6 0
74 74 74 74 74 77 71 74 68 74 81 71 68 61 58 58 55 48 48 48 45 45 42 39 26 26 23 29 26 26 19 19 23 26 13 19 13 16 10 6 0 10 0
65 71 77 77 74 74 71 71 65 65 61 68 61 58 58 48 48 52 48 45 52 48 42 39 32 23 23 23 16 19 19 26 16 16 19 16 6 16 6 0 0 6 6
68 65 71 74 74 74 68 65 65 52 55 65 61 55 52 45 32 26 39 45 52 48 45 42 29 19 10 3 3 3 0 16 13 10 13 3 10 6 13 0 3 6 3
71 68 71 71 68 71 65 65 55 58 55 55 58 45 52 39 26 10 3 23 52 48 48 45 23 23 6 13 6 0 0 0 0 10 3 3 0 3 3 6 6 3 6
74 71 74 74 71 68 68 68 61 58 55 55 52 48 52 42 23 6 0 3 29 48 48 39 35 26 16 13 13 6 3 0 0 0 0 3 0 0 3 0 3 3 3
65 58 58 58 61 61 58 65 61 58 61 58 55 58 61 35 16 3 0 10 29 32 32 29 29 29 13 3 6 13 3 3 3 0 0 0 0 0 0 0 0 0 0
68 61 58 61 61 61 58 58 61 61 65 58 55 55 58 45 19 3 0 13 23 29 42 26 6 6 6 3 3 6 6 6 3 3 0 0 0 0 0 0 0 0 0
68 71 65 61 55 55 61 61 68 68 65 61 58 55 48 39 19 6 0 13 19 26 19 16 23 0 0 0 0 3 3 3 3 3 3 3 0 0 0 0 0 0 0
61 58 55 55 52 55 55 61 61 61 55 55 61 52 42 35 16 3 0 0 0 13 16 10 6 0 0 0 0 0 0 0 0 3 0 0 0 0 0 0 0 0 0
55 52 52 48 48 48 48 48 45 48 52 52 45 42 35 29 19 0 0 0 0 0 6 0 0 0 0 0 0 0 0 0 0 0 0 0 0 0 0 0 0 0 0
48 48 48 45 45 42 39 39 35 32 39 52 42 32 32 26 26 10 3 0 0 0 0 3 0 0 0 0 0 0 0 0 3 0 0 0 0 0 0 0 0 0 0
48 48 45 42 35 29 23 19 19 23 16 23 26 26 26 23 13 13 6 3 0 0 0 0 6 3 3 3 3 3 3 0 0 0 0 0 0 0 0 0 0 0 0
48 45 35 35 32 23 19 13 0 0 0 0 3 3 3 0 0 0 0 3 0 0 0 6 3 3 0 0 0 0 0 0 0 0 0 0 0 0 0 0 0 0 0
39 32 32 32 29 26 26 23 13 0 0 0 0 0 0 0 0 0 0 0 0 0 3 0 0 0 0 0 0 0 0 0 0 0 0 0 0 0 0 0 0 0 0
29 23 32 23 23 23 26 23 19 16 10 3 0 0 0 0 0 0 0 0 0 0 0 0 0 0 0 0 3 0 0 0 0 0 3 3 3 3 3 3 0 0 0
16 13 13 13 16 19 23 16 13 16 16 10 3 0 0 0 0 0 0 0 0 0 0 0 0 0 0 0 0 0 0 0 3 3 3 3 3 3 3 3 3 3 0
16 6 10 16 13 13 10 6 16 13 13 13 0 0 0 0 0 0 0 0 0 0 0 0 0 0 3 3 3 3 3 3 3 3 3 3 3 3 3 3 0 0 0
13 10 3 10 6 6 6 3 3 6 10 10 3 0 0 0 0 0 0 0 0 0 0 0 0 0 0 3 3 3 3 3 3 3 3 3 0 0 0 0 0 0 0
16 10 6 6 3 3 3 3 3 6 3 0 0 0 0 0 0 0 0 0 0 0 0 0 0 3 3 3 3 3 3 3 3 0 0 0 0 0 0 0 0 0 0
10 6 3 3 3 0 3 3 6 3 3 0 0 0 0 0 0 0 3 3 3 3 3 3 3 3 3 3 0 0 0 0 0 0 0 0 0 0 0 0 0 0 0
6 6 3 3 0 0 3 3 3 3 0 3 3 3 3 3 3 3 3 3 3 3 3 0 0 0 0 0 0 0 0 0 0 0 0 0 0 0 0 0 0 0 0
10 6 6 6 10 3 3 3 6 3 3 3 3 3 3 3 3 3 3 3 0 0 0 0 0 0 0 0 0 0 0 0 0 0 0 0 0 0 0 0 0 0 0
6 6 6 10 10 10 6 3 3 3 3 3 3 3 3 0 0 0 0 0 0 0 0 0 0 0 0 0 0 0 0 0 0 0 0 0 0 0 0 0 0 0 0
Height
5850 5851 5851 5852 5853 5854 5855 5856 5857 5858 5859 5861 5862 5863 5864 5865 5866 5867 5868 5869 5870 5871 5872 5873 5874 5874 5875 5875 5875 5876 5876 5876 5876 5876 5875 5875 5874 5873 5872 5871 5871 5869 5868
5847 5848 5848 5849 5850 5851 5852 5853 5854 5855 5856 5857 5858 5859 5860 5861 5862 5863 5864 5865 5866 5867 5868 5869 5869 5869 5870 5870 5871 5871 5872 5872 5872 5872 5871 5870 5870 5869 5867 5866 5866 5865 5863
5844 5844 5845 5846 5847 5848 5849 5850 5851 5851 5852 5853 5854 5855 5856 5857 5858 5859 5860 5860 5861 5862 5863 5864 5864 5865 5865 5865 5866 5866 5867 5867 5867 5867 5866 5865 5864 5863 5862 5861 5860 5859 5858
5840 5841 5841 5842 5843 5844 5845 5846 5847 5848 5848 5849 5850 5851 5852 5853 5854 5855 5855 5856 5857 5858 5858 5859 5859 5860 5860 5860 5861 5861 5862 5862 5862 5862 5861 5860 5859 5858 5857 5856 5854 5853 5852
5837 5838 5838 5839 5840 5841 5841 5842 5843 5844 5844 5845 5846 5847 5848 5848 5849 5850 5850 5851 5852 5853 5853 5854 5854 5855 5855 5855 5856 5856 5856 5856 5856 5856 5856 5855 5854 5853 5851 5850 5848 5847 5845
5834 5835 5835 5836 5837 5837 5837 5838 5839 5839 5840 5841 5841 5842 5843 5843 5844 5845 5845 5846 5847 5847 5848 5849 5849 5849 5850 5850 5850 5850 5851 5851 5850 5850 5849 5848 5847 5846 5844 5843 5841 5840 5838
5831 5832 5832 5832 5833 5833 5833 5834 5835 5835 5835 5836 5836 5837 5837 5838 5839 5839 5840 5840 5841 5842 5843 5843 5844 5844 5844 5844 5844 5844 5844 5844 5844 5844 5843 5841 5840 5839 5837 5836 5834 5833 5831
5828 5828 5829 5829 5829 5829 5829 5829 5830 5830 5830 5831 5831 5831 5831 5832 5833 5833 5834 5834 5835 5836 5837 5837 5838 5838 5838 5838 5838 5838 5838 5838 5837 5836 5835 5834 5833 5831 5830 5828 5827 5825 5823
5824 5824 5825 5825 5825 5825 5824 5825 5825 5825 5825 5825 5826 5826 5826 5826 5827 5827 5828 5828 5829 5830 5831 5831 5831 5832 5832 5831 5831 5831 5831 5831 5830 5829 5828 5826 5825 5823 5821 5820 5818 5817 5815
5820 5820 5820 5820 5820 5820 5820 5820 5820 5820 5820 5820 5820 5820 5820 5821 5821 5821 5821 5822 5823 5824 5824 5824 5825 5825 5825 5825 5824 5824 5824 5823 5822 5821 5820 5818 5817 5815 5813 5811 5809 5807 5805
5815 5816 5815 5815 5815 5815 5815 5815 5815 5815 5815 5815 5815 5815 5815 5814 5814 5814 5814 5815 5816 5817 5817 5818 5818 5818 5818 5818 5817 5817 5816 5815 5814 5813 5811 5810 5808 5807 5805 5802 5800 5798 5795
5811 5811 5810 5810 5810 5810 5810 5810 5810 5810 5809 5809 5809 5808 5808 5808 5808 5808 5808 5809 5809 5810 5811 5811 5811 5811 5811 5810 5810 5809 5808 5806 5805 5804 5803 5801 5800 5798 5796 5794 5791 5788 5786
5806 5806 5805 5805 5805 5805 5805 5804 5804 5804 5804 5804 5803 5803 5803 5802 5802 5802 5802 5802 5803 5803 5804 5804 5804 5804 5803 5803 5802 5801 5799 5798 5796 5795 5794 5792 5790 5788 5786 5784 5781 5778 5775
5800 5800 5800 5800 5800 5800 5799 5799 5799 5798 5798 5798 5798 5797 5797 5796 5796 5796 5796 5796 5796 5796 5796 5796 5796 5796 5795 5794 5793 5792 5790 5789 5788 5786 5784 5783 5780 5778 5776 5773 5770 5767 5764
5794 5795 5795 5795 5795 5794 5794 5794 5793 5793 5793 5793 5792 5792 5791 5791 5790 5790 5789 5789 5789 5789 5789 5788 5788 5788 5786 5785 5784 5782 5781 5779 5778 5776 5774 5772 5770 5768 5765 5762 5759 5755 5752
5789 5789 5789 5789 5789 5789 5788 5788 5788 5788 5788 5787 5787 5786 5786 5785 5785 5784 5783 5783 5782 5782 5781 5781 5780 5779 5778 5776 5775 5773 5772 5770 5768 5766 5764 5761 5759 5756 5753 5750 5746 5742 5738
5783 5783 5783 5783 5783 5783 5783 5782 5782 5782 5782 5782 5781 5781 5780 5779 5778 5778 5777 5776 5775 5774 5774 5773 5772 5770 5769 5768 5766 5764 5762 5760 5758 5756 5753 5750 5747 5744 5741 5737 5733 5729 5725
5778 5778 5777 5777 5777 5777 5777 5777 5776 5776 5776 5775 5774 5774 5773 5773 5772 5771 5770 5769 5768 5767 5766 5764 5763 5761 5760 5758 5756 5754 5752 5750 5747 5745 5742 5739 5735 5732 5728 5724 5720 5715 5711
5771 5772 5772 5771 5771 5771 5771 5770 5770 5770 5769 5768 5768 5767 5767 5766 5765 5764 5763 5762 5760 5759 5757 5756 5754 5753 5751 5749 5746 5744 5742 5739 5736 5733 5730 5727 5723 5719 5715 5711 5707 5702 5697
5766 5766 5766 5766 5765 5765 5764 5764 5764 5763 5763 5762 5762 5761 5760 5760 5758 5757 5755 5754 5752 5750 5749 5747 5745 5743 5741 5739 5736 5734 5731 5729 5725 5722 5719 5715 5711 5707 5703 5698 5693 5688 5683
5760 5760 5760 5760 5760 5759 5759 5758 5758 5757 5757 5756 5756 5755 5754 5753 5751 5750 5748 5746 5744 5742 5740 5738 5736 5734 5732 5729 5726 5724 5721 5718 5714 5711 5707 5703 5699 5694 5690 5684 5679 5674 5670
5754 5754 5754 5754 5754 5754 5753 5753 5752 5751 5750 5750 5749 5748 5746 5745 5744 5742 5740 5738 5736 5734 5731 5729 5727 5724 5722 5719 5716 5713 5710 5706 5703 5699 5695 5691 5686 5681 5676 5671 5666 5661 5656
5749 5748 5748 5748 5748 5748 5747 5747 5746 5745 5744 5743 5742 5741 5739 5738 5736 5734 5732 5730 5727 5725 5722 5719 5717 5714 5711 5708 5705 5702 5698 5695 5691 5687 5682 5678 5673 5668 5664 5659 5654 5649 5644
5743 5743 5743 5742 5742 5742 5741 5740 5740 5739 5738 5736 5735 5733 5732 5730 5728 5726 5724 5721 5718 5715 5713 5710 5707 5704 5701 5697 5694 5690 5687 5683 5679 5674 5670 5665 5661 5656 5652 5647 5642 5637 5632
5737 5737 5737 5737 5736 5736 5735 5734 5733 5732 5731 5729 5728 5726 5724 5722 5720 5717 5715 5712 5709 5706 5703 5700 5697 5693 5690 5687 5683 5679 5675 5671 5667 5662 5658 5654 5650 5645 5640 5636 5631 5626 5621
5732 5732 5731 5731 5730 5729 5729 5727 5726 5725 5723 5722 5720 5718 5716 5713 5711 5708 5705 5702 5699 5696 5693 5690 5687 5683 5680 5676 5672 5668 5664 5660 5656 5651 5647 5643 5639 5635 5630 5626 5621 5616 5611
Wind_Speed
14 14 14 13 13 13 13 13 14 14 14 16 17 17 16 17 17 18 18 17 18 17 17 18 18 18 18 18 17 17 17 16 16 15 15 16 16 16 16 16 16 17 18
14 14 14 14 14 14 14 15 15 15 16 17 17 17 17 17 18 18 18 18 18 19 19 19 19 20 19 18 18 18 18 17 17 17 17 18 18 18 19 18 19 19 20
14 14 14 14 14 14 15 15 15 15 16 16 17 17 17 17 18 18 18 18 19 20 20 20 19 19 19 19 20 19 19 18 19 19 19 20 20 21 21 21 21 21 21
15 14 14 13 14 14 15 15 15 15 16 16 16 17 18 18 18 19 19 19 20 20 20 20 20 20 20 20 20 20 20 20 20 20 21 21 21 22 22 23 23 23 23
15 14 13 13 14 14 15 15 16 16 16 17 18 18 19 20 20 20 20 20 20 20 21 20 20 21 21 22 21 21 21 21 21 21 22 23 23 24 24 25 25 25 26
15 14 14 15 15 15 16 16 17 17 17 17 18 19 20 20 20 21 20 20 21 21 21 21 21 22 22 22 21 21 22 23 23 23 24 25 25 25 26 26 27 27 27
16 16 16 16 17 17 17 18 18 19 19 18 20 20 20 20 19 20 21 21 22 22 22 22 23 23 22 22 22 23 23 24 25 25 26 26 27 28 28 28 28 28 29
16 16 17 17 17 17 17 18 19 19 19 19 20 20 20 20 20 21 22 22 22 23 22 23 23 23 23 23 23 24 24 25 27 28 28 29 30 30 30 29 29 30 30
17 17 17 17 18 17 17 18 19 19 19 19 19 19 19 20 21 22 23 23 23 23 23 23 24 24 25 25 25 26 27 28 29 29 30 30 31 31 31 31 32 32 32
18 18 19 19 19 18 18 18 18 19 19 20 20 20 21 21 22 22 23 24 24 24 23 23 24 24 25 26 26 27 28 29 30 31 31 31 30 31 32 34 34 34 34
19 19 20 19 19 19 19 19 20 20 20 20 21 21 22 22 22 22 23 24 24 24 25 25 25 26 27 28 28 29 30 31 31 31 31 31 31 33 34 35 35 35 35
19 20 20 19 19 20 20 20 21 21 21 21 21 21 22 23 23 22 23 23 24 24 25 26 26 27 29 29 30 30 31 32 31 31 32 32 33 35 35 35 35 36 37
20 20 19 19 20 20 20 20 21 21 21 22 22 22 23 22 22 23 23 24 25 26 26 27 27 28 29 30 31 31 32 32 32 33 34 34 35 36 36 36 36 37 39
20 20 20 20 20 20 20 21 21 21 21 21 22 22 22 22 23 23 23 24 25 27 27 28 28 30 31 32 32 32 32 33 34 35 35 36 36 37 37 38 39 40 42
21 20 21 21 21 21 22 22 22 22 21 21 21 21 21 21 22 23 23 24 25 26 28 29 29 29 30 31 31 32 33 33 34 35 36 37 38 38 39 40 41 43 44
22 22 22 22 21 21 22 22 22 21 22 22 22 22 22 22 23 24 24 25 27 28 28 29 29 30 31 31 32 33 33 35 36 37 39 39 40 40 41 42 43 44 45
23 23 23 22 21 21 21 21 21 22 23 23 24 23 23 24 25 25 25 26 27 28 29 30 31 31 32 32 33 34 34 36 37 39 40 40 40 42 43 44 45 46 47
22 22 23 22 21 22 22 22 23 23 23 24 24 24 24 24 25 25 26 27 28 29 30 31 31 32 32 33 34 35 35 37 38 39 39 40 42 43 45 45 46 47 47
21 21 22 22 22 22 23 23 23 23 23 23 23 23 24 24 25 26 26 27 29 30 30 31 31 33 34 34 35 36 37 37 38 39 40 41 43 44 44 46 47 47 47
21 22 22 22 22 22 22 22 22 21 21 22 22 22 23 24 26 26 27 28 29 29 30 31 32 33 33 34 35 36 37 38 39 40 41 42 42 43 44 45 45 46 46
22 22 21 21 21 21 20 20 20 21 22 22 22 23 24 25 26 27 27 29 30 31 32 33 33 33 34 35 35 36 38 39 40 41 41 42 43 45 45 45 45 45 45
21 21 21 20 20 20 20 21 21 22 23 23 24 24 25 26 27 28 28 30 32 33 33 34 34 34 34 35 36 38 39 40 40 41 43 45 46 46 46 45 44 44 44
20 21 20 20 20 21 21 21 21 22 23 24 24 24 26 27 28 29 31 32 33 33 33 34 34 34 35 36 37 38 39 40 42 43 45 46 45 44 43 43 43 43 42
19 19 19 20 20 21 21 21 22 23 24 24 24 25 26 28 30 31 32 33 33 33 33 33 34 34 36 37 38 39 40 41 42 43 43 43 43 42 42 41 41 41 41
19 19 19 20 21 21 22 23 23 24 25 25 26 27 28 29 30 31 32 33 34 34 35 35 36 36 37 38 38 39 40 41 41 41 40 40 39 40 40 40 39 39 39
19 20 20 21 21 21 22 23 23 25 26 27 28 29 30 30 31 32 32 33 34 34 34 35 35 36 37 37 38 38 38 38 38 38 38 38 38 38 38 37 37 36 36
Wind_Direction
269 266 263 260 258 258 255 256 258 260 259 255 256 257 257 255 256 256 255 256 255 256 258 260 263 264 266 267 267 269 272 275 278 284 288 290 291 293 296 298 299 299 300
266 264 263 261 257 256 255 257 260 263 262 260 259 258 257 258 259 259 259 258 258 258 259 262 266 266 266 267 267 268 271 272 277 283 287 289 289 290 293 295 298 298 298
266 265 264 262 260 258 258 259 261 264 262 261 260 260 261 262 261 262 262 260 260 259 260 262 264 265 269 268 266 267 270 274 277 281 284 286 288 290 292 293 294 296 297
270 269 267 263 261 260 262 262 264 265 263 262 261 261 262 262 263 263 263 263 263 260 260 261 263 267 270 270 268 269 270 273 276 279 283 286 289 291 292 292 293 293 294
268 265 265 264 262 264 266 266 267 267 265 264 265 265 263 262 262 264 262 263 263 261 260 261 265 268 270 271 269 268 270 273 276 279 282 285 289 291 291 292 292 294 294
266 267 267 265 267 268 269 269 268 267 267 269 268 268 265 264 263 263 263 263 263 261 261 263 266 269 269 268 268 269 271 274 276 279 281 285 287 288 291 293 293 294 294
266 265 267 267 269 270 270 269 267 268 268 270 269 270 269 266 264 264 264 264 263 262 262 263 265 268 268 267 268 271 272 274 277 279 281 284 286 288 290 292 293 294 295
266 267 268 270 272 272 271 271 270 269 268 269 270 270 270 267 266 266 263 263 264 264 265 267 266 266 269 269 269 271 274 275 277 280 281 283 285 288 289 290 291 293 294
266 269 271 272 273 272 272 273 272 272 269 270 268 269 271 269 266 264 263 263 263 264 265 268 269 270 271 271 271 272 275 276 279 280 281 283 286 287 288 289 290 292 293
267 271 272 273 271 271 272 272 273 273 271 270 269 269 272 270 267 264 264 263 263 264 265 268 270 272 272 271 273 276 277 278 279 281 282 284 285 287 289 290 290 291 291
268 271 272 273 271 272 272 271 271 272 272 271 270 269 271 270 266 265 265 264 265 265 266 267 270 272 271 271 274 277 279 280 280 281 283 286 287 289 290 290 290 291 292
268 271 273 272 272 273 272 271 271 272 272 272 272 270 269 268 265 264 265 266 264 266 267 268 270 273 273 274 275 278 280 280 280 281 284 287 289 290 290 290 291 293 295
269 270 272 275 275 275 274 271 270 270 271 272 273 273 272 271 268 267 267 267 266 266 267 268 271 274 276 277 278 279 280 280 281 283 285 287 288 289 290 289 291 293 294
269 271 272 274 275 276 275 273 273 272 273 274 275 277 278 277 272 271 269 268 268 270 271 271 274 276 277 278 278 278 279 281 282 284 285 286 287 288 289 289 291 292 293
268 270 272 272 274 274 273 273 275 275 276 276 278 279 279 278 275 273 271 271 271 272 273 275 276 278 279 278 280 281 281 282 284 284 285 287 288 289 290 290 291 293 293
273 274 275 275 274 273 273 272 273 276 276 276 278 280 279 277 275 273 273 274 275 277 278 279 279 280 281 282 282 283 284 285 285 285 286 287 288 290 291 291 292 294 294
272 274 276 276 274 273 274 275 275 276 278 279 278 277 277 277 277 277 277 276 276 278 279 279 280 281 282 283 283 284 285 286 287 288 289 289 289 291 292 292 292 294 294
271 275 275 273 272 273 274 275 276 276 277 279 278 277 277 278 280 281 281 281 281 282 284 285 284 283 284 285 285 286 288 288 289 291 292 290 291 292 294 293 294 296 296
270 273 275 274 273 273 273 274 275 276 277 277 278 279 280 281 283 285 285 284 284 285 286 287 286 286 286 287 287 288 289 290 290 292 293 293 294 295 295 296 297 297 297
271 272 273 273 273 274 275 274 274 275 276 277 279 281 283 284 285 286 287 287 287 288 289 289 289 289 289 289 290 290 291 292 293 294 295 295 296 297 298 298 298 298 298
269 270 270 271 273 276 277 274 273 273 277 280 281 283 283 284 286 287 288 289 289 289 290 290 290 291 291 291 291 292 293 294 294 295 296 297 297 298 298 298 298 299 299
269 269 269 271 274 277 278 278 280 281 280 280 285 287 287 287 288 289 290 291 291 291 292 292 292 292 292 292 293 294 295 294 295 296 298 299 299 299 299 300 300 299 299
271 272 273 275 277 279 281 282 283 284 285 286 286 287 287 288 289 289 291 293 293 293 293 293 292 293 293 294 294 295 295 296 297 298 299 299 299 300 300 301 300 300 300
272 276 278 280 282 282 283 283 284 286 289 290 290 291 291 290 291 292 292 293 294 294 295 295 295 296 296 296 296 297 297 298 299 299 299 300 300 301 301 301 301 302 302
275 278 280 283 284 285 286 286 286 287 288 288 290 292 293 294 295 295 295 295 295 295 296 296 296 297 298 298 299 299 299 299 299 299 300 301 301 302 302 302 303 303 304
277 278 280 283 285 286 286 286 287 288 289 290 291 293 294 295 296 297 297 297 297 297 297 298 298 299 299 300 300 300 300 300 301 301 302 302 302 302 303 305 305 305 305